Vorticity
13 16 11 8 8 9 8 13 17 6 8 13 9 11 7 1 7 10 11 12 11 7 3 2 6 8 8 13 19 20 16 12 9 7 8 7 6 5 4 6 6 7 9 8 7 7 7 7 6 7 6 6 6 6 5 4 5 5 5 6 5 4
8 11 9 8 9 9 13 18 13 7 13 13 9 11 7 7 10 7 4 6 12 13 9 9 13 12 9 14 16 12 9 5 4 6 7 8 6 5 6 6 6 6 8 9 8 7 7 7 7 7 7 6 6 6 5 5 6 5 4 5 4 4
11 10 10 4 3 9 11 8 6 10 12 10 12 11 10 14 12 9 7 6 10 15 17 18 16 13 12 12 9 7 6 4 5 7 10 12 9 9 9 7 8 7 6 8 8 7 7 8 8 8 7 7 7 6 6 5 6 7 5 5 5 5
22 17 9 3 7 9 7 8 9 11 11 10 11 10 12 13 10 9 6 3 8 13 13 16 18 14 9 4 4 5 4 4 5 7 10 10 7 9 12 11 8 7 8 8 7 7 7 8 10 11 9 7 7 6 7 6 6 8 9 6 5 5
18 12 3 5 17 14 9 14 13 13 12 8 8 12 15 9 7 6 4 8 16 19 18 18 15 7 4 6 8 8 6 6 7 9 9 5 5 9 12 9 8 11 11 6 6 8 9 9 9 10 10 8 7 7 6 6 7 9 9 6 5 7
3 -4 -8 2 17 18 15 13 12 11 11 13 15 16 13 8 10 12 15 19 19 19 16 10 7 6 11 13 9 5 6 8 10 12 8 7 10 13 11 6 11 15 9 8 11 11 11 11 11 8 8 9 8 7 7 7 9 10 10 7 6 7
4 -0 -3 4 11 14 15 12 14 10 11 20 16 8 9 11 12 11 10 12 17 18 6 -3 -1 4 8 8 5 7 11 12 13 12 9 9 8 11 13 8 8 8 12 20 18 17 10 6 12 11 8 10 9 8 8 9 9 10 11 9 7 7
8 3 3 8 8 8 10 13 14 7 9 11 2 4 9 9 8 6 5 6 14 12 -2 -4 -1 2 7 7 10 13 14 12 11 11 10 10 7 9 14 12 9 6 12 17 15 19 12 2 7 12 12 10 11 10 7 10 9 7 9 8 8 8
11 13 12 9 8 12 11 12 14 11 14 5 -4 7 10 3 3 6 11 8 6 8 5 5 5 7 7 6 9 11 10 10 12 13 12 11 10 10 11 14 17 15 12 11 17 23 17 10 1 2 13 11 9 10 7 10 10 7 8 8 9 8
19 17 11 9 15 18 15 15 17 12 12 7 2 9 6 0 4 7 6 0 -0 8 11 6 5 11 12 9 9 7 7 9 12 13 11 8 9 10 11 14 15 16 13 11 19 17 12 14 0 -4 9 9 8 10 8 11 10 9 9 8 9 9
12 -1 -0 11 15 14 15 18 17 7 1 6 8 10 10 6 8 6 -0 3 10 10 8 5 5 11 12 11 10 9 9 8 8 10 9 7 9 13 15 15 10 10 11 13 21 16 8 7 1 2 9 8 7 7 10 11 7 7 9 10 10 9
11 4 7 11 10 10 11 12 14 12 7 7 9 8 10 7 3 2 2 11 15 7 9 10 7 10 10 8 8 8 7 5 7 9 8 7 10 14 16 15 10 10 9 11 17 12 9 6 1 9 13 14 8 2 12 12 5 8 10 11 10 10
6 7 15 15 11 10 8 9 11 12 9 5 6 3 1 2 2 7 9 10 7 6 11 8 4 9 10 7 6 6 5 6 7 8 10 9 11 13 13 11 11 13 7 8 11 6 11 8 2 13 14 13 8 -1 9 11 6 9 8 9 9 11
-4 0 17 19 9 9 10 11 9 7 8 4 2 0 1 5 7 10 11 8 6 5 5 3 4 9 7 7 8 8 8 8 6 7 8 8 10 11 10 10 12 14 10 11 14 8 9 5 2 10 1 2 7 -1 6 8 6 10 7 7 9 9
3 6 17 15 7 12 11 4 3 4 7 7 4 3 4 7 8 8 6 4 5 4 4 4 6 7 5 6 8 9 8 8 8 7 6 7 11 10 8 9 8 13 16 15 11 8 14 13 13 14 2 3 8 1 6 7 7 12 7 7 11 10
12 15 18 14 8 10 7 2 6 3 1 7 9 6 3 5 8 7 6 5 6 6 6 5 5 6 7 7 8 9 9 8 7 7 7 6 8 8 8 8 6 11 16 14 10 11 17 16 18 22 12 6 5 3 8 9 6 6 9 13 12 11
14 15 15 14 11 10 6 4 5 2 2 7 7 3 3 7 7 5 6 6 5 5 5 6 6 5 6 7 7 8 8 8 9 8 8 6 6 7 8 9 8 10 12 12 13 12 14 15 17 16 7 2 7 8 7 9 7 3 11 15 6 8
7 9 13 14 14 18 17 9 4 6 10 9 3 2 6 7 6 5 4 4 4 5 5 5 6 5 5 5 6 7 8 9 10 8 7 6 6 6 8 9 8 9 10 12 15 10 7 12 12 8 6 5 9 10 5 6 6 -0 3 7 4 5
4 6 8 5 2 5 5 -1 2 9 8 5 5 6 8 6 5 6 6 6 7 6 6 6 6 6 6 5 5 6 7 8 9 9 7 7 7 7 8 9 7 8 9 8 12 8 3 8 10 10 11 6 4 8 9 8 6 2 3 8 10 5
3 6 12 11 6 2 -3 -4 4 10 8 7 10 8 6 5 5 7 8 8 7 7 8 8 7 7 6 7 6 7 8 8 9 9 9 7 8 9 7 7 7 8 10 7 7 9 10 12 9 7 7 7 7 10 12 13 9 7 7 5 7 10
5 12 18 11 7 9 8 9 9 8 10 11 8 5 5 6 7 8 8 7 6 6 6 6 7 8 8 8 7 8 9 8 9 9 10 10 8 8 7 8 8 7 9 9 8 9 10 8 7 8 8 11 13 12 13 14 11 11 11 6 6 12
8 14 13 0 4 14 11 9 8 8 12 9 5 6 6 7 7 8 7 7 7 6 6 7 8 10 10 11 10 9 8 8 9 8 9 11 10 9 8 7 8 7 7 7 9 10 8 6 8 9 7 8 8 9 9 8 8 10 11 10 7 5
10 12 8 -1 6 14 10 9 8 6 5 3 5 6 6 7 7 7 6 6 6 5 6 8 9 11 11 11 10 9 8 8 9 9 8 9 11 11 11 9 7 6 8 8 8 8 8 8 9 7 7 7 4 4 5 3 6 8 8 8 7 6
11 10 7 4 7 12 12 9 4 3 4 3 5 4 4 6 4 4 5 4 5 5 7 9 9 10 11 11 10 8 8 7 7 9 8 8 9 10 12 13 11 8 7 9 8 8 8 9 10 8 7 6 5 5 6 4 5 6 6 7 8 8
9 8 11 7 5 9 11 9 3 2 4 3 2 3 3 5 4 4 4 5 7 7 8 8 7 8 10 10 9 8 8 7 8 8 8 9 8 8 9 11 13 12 9 9 9 9 9 8 10 9 6 7 8 8 7 6 6 6 5 5 5 6
10 12 15 5 8 14 9 12 10 2 4 3 1 4 5 5 5 5 5 6 7 8 7 7 8 9 9 10 10 10 9 7 6 5 3 3 5 8 9 9 10 11 11 10 8 7 7 7 8 7 7 9 9 8 7 7 6 6 6 6 5 4
10 11 11 8 20 13 1 19 19 1 3 6 4 7 7 7 6 4 6 7 7 6 6 6 8 9 9 9 11 11 11 10 8 4 -1 -3 -1 3 8 10 9 9 8 7 7 7 7 7 6 6 7 9 10 10 10 9 7 7 7 8 8 7
8 9 10 14 20 10 16 35 12 -3 13 12 6 9 7 6 6 6 6 7 7 6 6 7 7 7 7 6 6 8 10 12 11 10 8 4 1 1 4 8 11 10 9 8 9 10 9 9 8 7 8 8 10 11 11 10 9 9 9 9 9 8
11 25 27 20 19 18 30 16 -24 -10 28 21 8 9 8 8 8 7 7 6 7 6 5 6 5 5 6 5 5 5 4 6 7 9 10 11 11 9 8 9 12 13 13 11 11 10 9 9 8 8 8 8 8 9 10 10 11 12 11 11 10 8
21 36 24 11 12 10 14 -1 -25 -5 21 18 13 9 7 9 7 6 8 7 7 7 6 6 6 6 7 8 9 10 10 10 10 8 7 7 10 12 12 10 11 12 13 11 9 8 8 6 7 7 7 7 6 7 8 9 10 11 12 13 12 11
20 10 -7 1 10 5 11 12 2 2 1 3 13 13 8 8 7 7 7 7 7 6 5 4 5 6 7 9 11 11 12 13 15 16 14 10 8 10 12 11 10 10 11 11 8 6 6 6 6 7 6 6 6 6 7 7 8 7 9 11 10 11
11 -4 -4 6 5 3 8 7 10 15 7 3 11 17 11 5 6 7 5 7 6 4 4 7 10 11 10 11 11 7 4 4 6 10 15 16 12 10 10 11 12 11 10 11 10 9 7 7 6 6 6 6 6 6 6 6 7 7 7 7 7 9
4 10 16 12 6 10 7 1 10 13 8 10 14 15 11 6 6 5 5 6 3 5 13 17 17 16 13 11 8 3 0 1 4 5 9 13 13 11 9 9 10 11 11 11 11 11 10 9 8 7 6 7 7 7 7 7 7 7 7 8 7 8
-1 9 12 12 15 14 7 6 8 2 1 8 10 8 8 7 2 0 4 3 3 14 20 15 13 13 12 9 6 3 3 6 9 9 9 10 11 10 9 9 9 10 11 11 11 11 11 11 11 10 9 9 8 8 8 8 8 8 9 9 8 8
6 7 9 12 10 5 5 9 11 14 17 12 8 7 5 3 -0 1 6 5 10 18 11 4 7 10 10 10 9 8 10 12 12 11 11 9 9 9 9 9 9 9 10 11 11 11 11 10 11 11 10 9 9 8 8 8 8 8 8 9 9 8
13 13 13 8 3 2 6 10 11 13 14 9 5 4 3 1 -2 -1 3 9 19 15 2 2 8 8 9 10 9 8 11 13 11 9 9 8 7 6 6 6 5 6 7 8 9 9 10 10 9 9 9 8 8 7 7 6 6 7 7 7 8 8
9 10 11 7 5 3 2 15 22 13 13 18 16 12 9 -2 -11 -10 -2 14 24 11 -1 5 7 5 8 9 8 8 8 7 6 6 6 5 5 4 4 4 4 5 5 5 6 7 8 8 8 8 7 7 7 6 7 7 7 7 7 7 7 7
Height
5814 5813 5812 5811 5811 5810 5808 5807 5807 5806 5807 5809 5809 5809 5809 5809 5809 5809 5809 5810 5810 5811 5811 5812 5812 5812 5813 5814 5814 5814 5814 5815 5814 5815 5815 5816 5817 5818 5818 5818 5818 5818 5819 5819 5819 5818 5818 5819 5819 5819 5820 5820 5820 5821 5821 5822 5824 5827 5829 5829 5828 5830
5811 5811 5811 5810 5810 5809 5807 5805 5804 5804 5806 5807 5807 5806 5807 5807 5807 5807 5807 5808 5808 5809 5809 5810 5810 5811 5812 5813 5813 5813 5813 5813 5813 5814 5814 5815 5816 5816 5816 5816 5816 5816 5816 5817 5817 5816 5816 5817 5817 5818 5819 5819 5819 5819 5819 5820 5823 5826 5828 5827 5827 5829
5808 5809 5809 5809 5808 5807 5805 5803 5802 5803 5805 5805 5804 5804 5805 5805 5805 5805 5805 5806 5806 5807 5808 5809 5809 5810 5810 5811 5811 5812 5812 5812 5812 5812 5813 5814 5814 5814 5815 5815 5814 5814 5814 5814 5814 5815 5815 5816 5817 5817 5818 5818 5818 5818 5818 5819 5821 5825 5826 5825 5826 5827
5805 5806 5806 5806 5806 5804 5803 5801 5800 5801 5803 5803 5802 5802 5802 5802 5803 5803 5804 5804 5805 5806 5807 5808 5808 5808 5808 5809 5810 5810 5810 5810 5810 5811 5811 5812 5812 5812 5812 5813 5813 5813 5812 5812 5812 5813 5814 5814 5815 5816 5816 5816 5816 5817 5817 5817 5819 5823 5824 5823 5824 5826
5803 5803 5803 5803 5802 5801 5800 5799 5798 5799 5801 5801 5801 5800 5800 5801 5801 5802 5803 5804 5805 5805 5806 5806 5806 5807 5807 5808 5808 5808 5808 5808 5809 5809 5810 5810 5810 5810 5810 5811 5811 5811 5810 5810 5810 5811 5812 5813 5813 5814 5814 5814 5815 5815 5815 5815 5817 5821 5823 5822 5822 5824
5801 5801 5801 5800 5799 5799 5798 5798 5797 5798 5799 5799 5799 5798 5798 5800 5801 5801 5803 5804 5804 5804 5804 5804 5805 5806 5807 5807 5807 5807 5806 5806 5807 5808 5808 5808 5808 5808 5809 5809 5809 5809 5808 5808 5807 5807 5808 5810 5811 5812 5812 5812 5813 5813 5813 5814 5816 5819 5821 5820 5821 5822
5800 5798 5798 5798 5797 5797 5797 5797 5797 5796 5796 5797 5798 5798 5798 5798 5800 5801 5803 5803 5803 5803 5803 5804 5804 5804 5805 5805 5804 5805 5805 5805 5806 5806 5806 5806 5806 5807 5807 5807 5807 5806 5806 5806 5806 5805 5806 5807 5808 5809 5810 5811 5811 5811 5812 5813 5815 5817 5819 5819 5819 5820
5797 5796 5795 5796 5796 5797 5797 5797 5796 5794 5794 5796 5797 5798 5797 5798 5800 5801 5802 5802 5802 5802 5802 5802 5802 5802 5802 5803 5803 5803 5804 5804 5804 5804 5804 5804 5805 5806 5806 5805 5805 5805 5805 5805 5805 5804 5804 5805 5806 5807 5808 5809 5810 5810 5810 5812 5814 5815 5816 5817 5817 5818
5795 5793 5794 5795 5796 5796 5795 5795 5795 5794 5794 5795 5796 5797 5797 5798 5800 5801 5801 5802 5802 5801 5800 5800 5800 5801 5801 5800 5801 5801 5802 5802 5802 5802 5803 5803 5804 5804 5804 5803 5803 5803 5803 5803 5802 5802 5803 5804 5805 5806 5806 5807 5808 5808 5808 5811 5813 5814 5814 5815 5816 5816
5794 5792 5792 5794 5794 5794 5793 5793 5793 5794 5794 5794 5795 5796 5797 5798 5800 5800 5800 5800 5800 5799 5798 5799 5799 5799 5799 5798 5798 5799 5800 5801 5801 5801 5802 5802 5802 5802 5802 5802 5802 5801 5800 5800 5799 5799 5800 5803 5804 5805 5805 5805 5806 5806 5807 5810 5812 5812 5812 5813 5814 5815
5794 5792 5791 5792 5792 5792 5792 5792 5792 5793 5794 5795 5796 5796 5796 5797 5798 5799 5799 5798 5797 5797 5797 5798 5798 5797 5798 5797 5797 5798 5799 5800 5801 5800 5800 5800 5800 5801 5800 5800 5800 5799 5798 5798 5799 5799 5799 5800 5801 5803 5804 5804 5804 5805 5806 5808 5810 5809 5810 5811 5811 5812
5792 5792 5790 5790 5791 5791 5792 5792 5792 5793 5793 5795 5796 5795 5795 5796 5797 5797 5798 5797 5796 5796 5796 5796 5798 5798 5797 5796 5795 5796 5798 5799 5800 5800 5799 5798 5799 5799 5799 5799 5799 5798 5797 5797 5799 5800 5799 5799 5800 5801 5803 5803 5803 5804 5804 5806 5808 5807 5808 5809 5809 5810
5789 5791 5789 5788 5790 5790 5791 5791 5791 5792 5793 5794 5795 5795 5795 5795 5796 5796 5796 5797 5795 5795 5794 5794 5796 5798 5797 5795 5795 5795 5796 5797 5798 5797 5797 5797 5797 5797 5798 5798 5798 5798 5797 5797 5798 5799 5799 5800 5800 5800 5800 5802 5803 5803 5803 5805 5806 5805 5806 5807 5807 5808
5788 5789 5788 5787 5789 5789 5789 5790 5791 5791 5793 5794 5795 5795 5795 5794 5794 5795 5795 5795 5794 5794 5793 5793 5795 5796 5796 5795 5795 5795 5795 5796 5796 5796 5796 5796 5796 5796 5796 5796 5797 5796 5796 5795 5796 5797 5798 5799 5799 5799 5799 5801 5802 5802 5802 5803 5803 5803 5804 5805 5806 5807
5787 5787 5786 5786 5788 5789 5789 5789 5790 5791 5792 5793 5794 5794 5794 5794 5794 5795 5795 5794 5794 5793 5793 5793 5793 5794 5794 5795 5795 5795 5795 5795 5796 5796 5795 5795 5796 5796 5796 5795 5795 5795 5794 5794 5795 5796 5796 5796 5797 5798 5799 5800 5801 5800 5800 5801 5801 5800 5801 5803 5804 5805
5785 5784 5784 5784 5785 5787 5788 5789 5790 5791 5791 5792 5792 5793 5793 5793 5794 5794 5794 5793 5793 5793 5793 5793 5793 5793 5793 5794 5794 5795 5795 5795 5795 5795 5795 5795 5795 5795 5795 5795 5794 5794 5793 5793 5793 5794 5795 5795 5796 5798 5798 5799 5799 5800 5800 5800 5799 5798 5800 5802 5802 5803
5785 5783 5781 5781 5782 5785 5786 5787 5788 5789 5789 5790 5791 5791 5792 5792 5792 5792 5792 5792 5792 5792 5793 5793 5793 5793 5793 5794 5794 5794 5794 5794 5794 5795 5795 5794 5794 5794 5794 5794 5794 5794 5793 5792 5793 5793 5795 5795 5796 5797 5798 5798 5799 5799 5800 5799 5798 5798 5799 5801 5801 5802
5785 5783 5781 5779 5778 5780 5782 5784 5785 5787 5787 5788 5789 5790 5791 5791 5791 5791 5791 5791 5791 5791 5792 5792 5793 5793 5793 5793 5793 5793 5793 5793 5793 5794 5794 5793 5793 5794 5794 5794 5794 5793 5793 5792 5793 5794 5795 5795 5796 5797 5798 5798 5797 5797 5798 5798 5797 5796 5797 5798 5798 5799
5784 5784 5782 5779 5777 5776 5777 5780 5783 5785 5786 5787 5788 5789 5789 5790 5790 5790 5790 5790 5790 5790 5791 5792 5792 5792 5792 5792 5792 5792 5792 5792 5792 5792 5792 5792 5792 5793 5793 5793 5793 5793 5792 5792 5793 5794 5794 5795 5796 5797 5797 5797 5797 5796 5796 5796 5796 5795 5796 5796 5796 5796
5782 5782 5782 5780 5779 5777 5776 5778 5781 5783 5785 5786 5787 5788 5788 5789 5789 5789 5789 5790 5790 5790 5790 5790 5790 5791 5791 5791 5791 5791 5791 5791 5791 5791 5791 5791 5791 5791 5791 5792 5792 5792 5792 5792 5793 5793 5794 5794 5795 5795 5795 5796 5796 5795 5795 5795 5795 5795 5795 5796 5795 5795
5779 5779 5780 5779 5779 5778 5777 5778 5780 5782 5783 5785 5786 5786 5787 5788 5789 5789 5789 5789 5790 5790 5789 5789 5789 5789 5789 5790 5790 5790 5790 5790 5790 5790 5791 5791 5791 5791 5790 5791 5791 5791 5791 5791 5792 5792 5793 5793 5794 5793 5793 5794 5794 5794 5794 5794 5795 5795 5795 5796 5794 5793
5775 5776 5777 5778 5778 5778 5777 5778 5780 5781 5783 5784 5785 5786 5787 5788 5788 5788 5788 5789 5789 5789 5789 5789 5789 5789 5789 5789 5789 5789 5788 5789 5789 5789 5790 5790 5790 5790 5790 5790 5791 5790 5790 5790 5791 5792 5792 5792 5793 5793 5793 5794 5793 5793 5793 5793 5794 5794 5795 5795 5793 5791
5772 5773 5775 5777 5777 5778 5778 5779 5780 5781 5783 5784 5785 5786 5786 5787 5787 5787 5787 5788 5788 5788 5788 5788 5788 5788 5788 5788 5787 5787 5787 5788 5788 5788 5788 5789 5789 5789 5789 5790 5790 5789 5789 5789 5790 5791 5790 5790 5791 5792 5793 5793 5792 5792 5793 5793 5793 5794 5794 5793 5793 5791
5770 5772 5774 5776 5776 5777 5778 5779 5780 5781 5783 5784 5784 5785 5785 5786 5786 5786 5786 5787 5787 5787 5787 5787 5787 5787 5787 5787 5787 5787 5787 5787 5787 5787 5787 5787 5787 5788 5788 5789 5789 5788 5788 5788 5789 5789 5789 5789 5790 5790 5791 5791 5792 5792 5792 5793 5793 5793 5793 5792 5792 5790
5769 5771 5773 5774 5776 5777 5778 5779 5780 5781 5782 5783 5783 5784 5785 5785 5785 5785 5786 5786 5786 5786 5786 5786 5786 5786 5786 5786 5786 5786 5786 5786 5786 5787 5786 5786 5786 5786 5786 5787 5787 5787 5787 5787 5788 5788 5789 5789 5789 5789 5789 5790 5791 5791 5791 5792 5792 5792 5791 5791 5791 5790
5769 5771 5772 5773 5774 5776 5778 5779 5780 5781 5782 5781 5782 5783 5784 5784 5784 5784 5785 5785 5786 5785 5785 5785 5785 5785 5785 5786 5786 5786 5786 5786 5786 5786 5786 5786 5786 5786 5785 5785 5785 5785 5785 5785 5786 5787 5787 5788 5788 5788 5788 5789 5789 5790 5790 5790 5790 5790 5790 5789 5789 5788
5768 5769 5771 5771 5772 5775 5777 5778 5780 5782 5781 5781 5781 5782 5782 5782 5783 5783 5784 5784 5785 5784 5784 5784 5784 5785 5785 5785 5785 5785 5785 5785 5785 5785 5785 5785 5785 5785 5784 5784 5783 5783 5783 5784 5784 5785 5785 5785 5785 5786 5786 5787 5788 5788 5788 5788 5788 5788 5788 5788 5787 5787
5766 5767 5769 5770 5771 5774 5776 5777 5780 5782 5782 5781 5781 5781 5781 5781 5781 5781 5782 5783 5783 5783 5783 5784 5784 5784 5784 5784 5784 5784 5784 5784 5783 5783 5784 5784 5784 5784 5783 5783 5782 5782 5782 5783 5783 5783 5783 5783 5783 5783 5784 5785 5785 5786 5786 5785 5785 5785 5785 5786 5786 5785
5764 5765 5768 5770 5771 5774 5776 5777 5779 5781 5781 5780 5780 5779 5779 5779 5780 5780 5781 5781 5781 5782 5783 5783 5783 5783 5782 5782 5782 5782 5782 5782 5782 5781 5782 5782 5782 5782 5782 5782 5781 5781 5781 5781 5781 5781 5781 5781 5781 5781 5781 5782 5783 5783 5783 5783 5783 5783 5784 5784 5783 5783
5763 5764 5766 5768 5770 5773 5775 5776 5778 5779 5779 5778 5778 5778 5778 5779 5779 5779 5780 5780 5781 5781 5782 5782 5781 5781 5781 5781 5781 5780 5780 5780 5780 5779 5779 5779 5780 5780 5779 5779 5779 5779 5778 5778 5778 5778 5778 5779 5779 5779 5779 5780 5780 5780 5781 5781 5781 5781 5782 5781 5781 5781
5762 5763 5764 5767 5769 5771 5773 5774 5775 5776 5777 5776 5776 5776 5777 5778 5778 5779 5779 5780 5780 5780 5781 5781 5780 5780 5779 5779 5779 5779 5778 5778 5778 5778 5777 5777 5778 5777 5777 5777 5777 5777 5776 5776 5776 5776 5776 5776 5777 5777 5778 5778 5778 5778 5779 5779 5779 5779 5779 5779 5779 5779
5763 5763 5764 5766 5767 5769 5770 5771 5772 5773 5774 5774 5774 5774 5774 5776 5777 5778 5778 5778 5779 5779 5779 5779 5779 5778 5777 5777 5777 5777 5777 5777 5776 5776 5776 5776 5776 5776 5775 5775 5775 5775 5775 5775 5774 5774 5775 5775 5775 5776 5776 5776 5776 5777 5777 5777 5777 5777 5777 5777 5777 5777
5761 5762 5763 5763 5764 5766 5767 5769 5770 5771 5771 5772 5772 5772 5772 5774 5775 5776 5777 5777 5777 5777 5777 5777 5776 5776 5775 5775 5774 5774 5775 5775 5775 5775 5774 5774 5774 5774 5774 5774 5774 5774 5774 5774 5774 5774 5774 5774 5774 5774 5775 5775 5775 5775 5775 5775 5775 5775 5775 5775 5775 5774
5759 5760 5761 5761 5762 5764 5765 5767 5768 5768 5769 5769 5770 5770 5770 5772 5773 5774 5775 5775 5775 5775 5775 5774 5774 5773 5773 5773 5773 5773 5773 5773 5773 5773 5773 5773 5773 5773 5773 5773 5773 5773 5773 5773 5773 5773 5773 5773 5773 5773 5773 5773 5774 5774 5774 5774 5774 5774 5774 5774 5773 5773
5755 5756 5758 5759 5760 5762 5764 5765 5765 5766 5766 5767 5768 5768 5768 5769 5770 5771 5772 5772 5773 5773 5773 5773 5772 5771 5771 5771 5771 5771 5771 5772 5772 5772 5772 5772 5772 5772 5772 5772 5772 5772 5772 5773 5772 5772 5772 5772 5772 5772 5772 5772 5772 5772 5772 5772 5772 5772 5772 5772 5771 5771
5752 5753 5755 5756 5758 5759 5761 5762 5763 5763 5764 5764 5765 5765 5766 5767 5767 5768 5769 5770 5771 5771 5771 5771 5770 5770 5769 5769 5769 5769 5770 5770 5770 5770 5770 5771 5771 5771 5771 5771 5771 5771 5771 5772 5772 5772 5771 5771 5771 5771 5771 5771 5771 5771 5771 5771 5771 5771 5771 5770 5770 5769
5750 5752 5753 5754 5755 5756 5757 5758 5759 5759 5760 5761 5763 5763 5763 5764 5765 5766 5766 5767 5768 5769 5769 5769 5768 5768 5768 5768 5768 5767 5768 5768 5768 5769 5769 5769 5769 5770 5770 5770 5770 5770 5770 5770 5770 5770 5770 5770 5770 5770 5770 5769 5769 5769 5769 5769 5769 5769 5769 5769 5768 5768